GW0823 Weather Reports


Display with metric or nautical units.
time (UTC)temp
F
wind
direction
speed
MPH
gust
MPH
rain 1hr
in
rain 24hr
in
rain mn
in
humidity
%
barometer
mb
20260505050128 54 0 0.0 4.0 0.00 0.00 0.00 84 1010.3
20260505041610 53 0 0.0 2.0 0.00 0.00 0.00 87 1009.9
20260505034558 53 0 0.0 0.0 0.00 0.00 0.00 87 1009.8
20260505033055 53 0 0.0 2.0 0.00 0.00 0.00 86 1009.9
20260505031559 53 0 1.0 3.0 0.00 0.00 0.00 86 1009.9
20260505030058 53 93 1.0 3.0 0.00 0.00 0.00 86 1009.9
20260505024558 53 0 1.0 4.0 0.00 0.00 0.00 85 1009.9
20260505023058 53 97 2.0 3.0 0.00 0.00 0.00 84 1009.9
20260505021600 54 97 1.0 3.0 0.00 0.00 0.00 83 1009.8
20260505020057 55 97 2.0 4.0 0.00 0.00 0.00 82 1009.8
20260505014631 55 98 2.0 4.0 0.00 0.00 0.00 81 1009.8
20260505013058 56 101 2.0 4.0 0.00 0.00 0.00 80 1009.8
20260505011606 57 94 2.0 4.0 0.00 0.00 0.00 78 1009.8
20260505010100 58 95 2.0 4.0 0.00 0.00 0.00 76 1009.8
20260505004559 58 107 2.0 4.0 0.00 0.00 0.00 76 1009.9
20260505003056 60 102 3.0 4.0 0.00 0.00 0.00 72 1009.8
20260505001631 61 101 2.0 4.0 0.00 0.00 0.00 70 1009.9
20260505000138 64 98 2.0 3.0 0.00 0.00 0.00 65 1009.8
20260504234613 67 100 2.0 3.0 0.00 0.00 0.00 61 1009.9
20260504233107 70 0 0.0 2.0 0.00 0.00 0.00 54 1010.1
20260504231558 71 116 0.0 2.0 0.00 0.00 0.00 52 1010.0
20260504230104 71 116 1.0 6.0 0.00 0.00 0.00 48 1010.1
20260504224611 71 104 1.0 4.0 0.00 0.00 0.00 48 1010.2
20260504223057 71 116 2.0 7.0 0.00 0.00 0.00 49 1010.2
20260504221559 71 88 2.0 9.0 0.00 0.00 0.00 48 1010.2
20260504220100 71 103 1.0 6.0 0.00 0.00 0.00 51 1010.2
20260504214601 70 96 0.0 10.0 0.00 0.00 0.00 51 1010.4
20260504213141 70 101 4.0 13.0 0.00 0.00 0.00 49 1010.2
20260504211607 72 74 2.0 9.0 0.00 0.00 0.00 48 1009.9
20260504210058 71 103 3.0 10.0 0.00 0.00 0.00 51 1009.9
20260504204558 71 257 1.0 12.0 0.00 0.00 0.00 47 1009.9
20260504203120 72 101 2.0 8.0 0.00 0.00 0.00 48 1010.1
20260504201559 71 115 3.0 9.0 0.00 0.00 0.00 46 1010.0
20260504200057 72 97 8.0 14.0 0.00 0.00 0.00 45 1010.2
20260504194608 72 103 2.0 14.0 0.00 0.00 0.00 47 1010.3
20260504193111 73 266 2.0 9.0 0.00 0.00 0.00 47 1010.4
20260504191607 72 122 5.0 13.0 0.00 0.00 0.00 46 1010.4
20260504190117 71 104 10.0 15.0 0.00 0.00 0.00 48 1010.2
20260504184608 71 104 9.0 16.0 0.00 0.00 0.00 49 1010.3
20260504183058 71 94 4.0 13.0 0.00 0.00 0.00 49 1010.6
20260504181601 71 260 3.0 12.0 0.00 0.00 0.00 48 1010.7
20260504180057 70 119 5.0 16.0 0.00 0.00 0.00 53 1011.1
20260504174612 69 51 3.0 13.0 0.00 0.00 0.00 52 1011.4
20260504173100 68 103 3.0 14.0 0.00 0.00 0.00 54 1011.7
20260504171557 67 17 4.0 8.0 0.00 0.00 0.00 51 1012.2
20260504140110 62 102 2.0 9.0 0.00 0.00 0.00 52 1013.8
20260504110119 44 0 0.0 0.0 0.00 0.00 0.00 90 1013.9
20260504100105 45 94 1.0 4.0 0.00 0.00 0.00 90 1013.9
20260504090121 45 0 0.0 0.0 0.00 0.00 0.00 87 1014.5
20260504081558 47 0 0.0 0.0 0.00 0.00 0.00 84 1014.5